[ hide orbit diagram ]
For accurate long-term ephemerides, please instead use our Horizons system.This orbit viewer was implemented using two-body methods, and hence should not be used for determining accurate long-term trajectories (over several years or decades) or planetary encounter circumstances.
Orbital Elements at Epoch 2459000.5 (2020-May-31.0) TDB
Reference: JPL 21 (heliocentric ecliptic J2000)
Element | Value | Uncertainty (1-sigma) | Units |
e | .1695192475331729 | 3.7955e-08 | |
a | 2.41825629235173 | 1.1115e-08 | au |
q | 2.008315305329904 | 9.3257e-08 | au |
i | .9616881692383454 | 3.9243e-06 | deg |
node | 258.3432264134383 | 0.00028264 | deg |
peri | 342.9433822054519 | 0.00028291 | deg |
M | 279.715349612326 | 1.3637e-05 | deg |
tp | 2459306.824643212031 (2021-Apr-02.32464321) | 5.2625e-05 | TDB |
period | 1373.573541440764 3.76 | 9.4699e-06 2.593e-08 | d yr |
n | .2620900804644141 | 1.8069e-09 | deg/d |
Q | 2.828197279373556 | 1.2999e-08 | au |
|
| | Orbit Determination Parameters
Additional Information
|
[ show covariance matrix ]
Physical Parameter Table
Parameter |
Symbol |
Value |
Units |
Sigma |
Reference |
Notes |
absolute magnitude |
H |
16.5 |
|
n/a |
MPO453109 |
|
|
70492 (1999 TO60) Discovered 1999-Oct-07 by Spacewatch at Kitt Peak |
Reference: 20031109/Numbers.arc | Last Updated: 2004-04-19 |
|
[ show close-approach data ]
|